Weather in Onatskovtsy

Ukraine / Khmelnitsky District     49°57′05″N   27°28′41″E
temp.,
°C
wind,
m/s
gust,
m/s
humid.,
%
clouds,
%
prec.,
mm/h
press.,
hPa
HPBL,
m
24 may, tue
tue2400:00+10ne22809 0.0 101334
03:00+6e22783 0.0 101311
06:00+6ene11740 0.0 101410
09:00+12ene23590 0.0 1014316
12:00+16ese22454 0.0 10141425
15:00+18ese33444 0.0 10141623
18:00+17ese22485 0.0 10141609
21:00+12ese3367100 0.0 101527
25 may, wed
wed2500:00+10se3568100 0.0 101673
03:00+9sse366675 0.0 101785
06:00+8sse49698 0.0 1017143
09:00+14sse586038 0.0 1017394
12:00+19sse6751100 0.0 10171359
15:00+19sse5761100 0.0 10151207
18:00+18se4873100 0.1 1014582
21:00+16sse497799 0.1 1014312
26 may, thu
thu2600:00+15ssw2683100 0.1 1013164
03:00+14w4998100 3.3 1013368
06:00+14wnw51096100 0.5 1014641
09:00+14nw7118328 0.6 1016709
12:00+18wnw7106044 0.1 10161844
15:00+20wnw8114618 0.1 10162571
18:00+16w59646 0.0 1016421
21:00+14wsw487595 0.0 1016150
27 may, fri
fri2700:00+14w613728 0.0 1017364
03:00+12w4118473 0.1 1017295
06:00+12w513795 0.0 1017540
09:00+15wnw69690 0.0 1017999
12:00+18w695892 0.1 10151755
15:00+19w61062100 0.1 10131761
18:00+20sw6126578 0.1 10101416
21:00+16wnw61381100 1.4 1010451
28 may, sat
sat2800:00+11w3793100 3.4 1012481
03:00+9w61192100 4.1 1012544
06:00+9w6129415 0.0 1012607
09:00+12w710691 0.0 10121091
12:00+14w81151100 0.0 10122308
15:00+15wnw9124982 0.4 10122485
18:00+15wnw610586 0.2 10121973
21:00+10w337424 0.3 101441